Weather History for KGNT - January, 2015

Change the Weather History Date:

Tuesday, January 6, 2015

  Actual Average Record
Temperature  
Mean Temperature 38 °F -  
Max Temperature 58 °F 40 °F 62 °F (2006)
Min Temperature 17 °F 12 °F -29 °F (1971)
Degree Days  
Heating Degree Days 28    
Moisture  
Dew Point 22 °F    
Average Humidity 67    
Maximum Humidity 91    
Minimum Humidity 31    
Precipitation  
Precipitation 0.00 in - - ()
Sea Level Pressure  
Sea Level Pressure 30.49 in    
Wind  
Wind Speed 9 mph (NW)    
Max Wind Speed 16 mph    
Max Gust Speed 25 mph    
Visibility 10 miles    
Events      
Averages and records for this station are not official NWS values.
T = Trace of Precipitation, MM = Missing Value Source: NWS Daily Summary

Daily Weather History Graph

Daily Weather History Graph

Search for Another Location

Airport or City:

Trip Planner

Search our weather history database for the weather conditions in past years. The results will help you decide how hot, cold, wet, or windy it might be!

Date:

Astronomy

Jan. 06, 2015 Rise Set
Actual Time 7:20 AM MST 5:14 PM MST
Civil Twilight 6:52 AM MST 5:42 PM MST
Nautical Twilight 6:21 AM MST 6:13 PM MST
Astronomical Twilight 5:50 AM MST 6:44 PM MST
Moon 7:01 PM MST (1/6) 8:04 AM MST (1/6)
Length of Visible Light 10h 49m
Length of Day
9h 53m
Full, 98% of the Moon is Illuminated
Jan 6
Full
Jan 13
Last Quarter
Jan 20
New
Jan 26
First Quarter
Feb 3
Full

Hourly Weather History & Observations

Time (MST) Temp. Windchill Dew Point Humidity Pressure Visibility Wind Dir Wind Speed Gust Speed Precip Events Conditions
12:15 AM 23.0 °F 13.9 °F 19.2 °F 85% 30.51 in 10.0 mi NW 8.1 mph - N/A   Clear
12:35 AM 22.3 °F 13.9 °F 18.9 °F 87% 30.51 in 10.0 mi NW 6.9 mph - N/A   Clear
12:55 AM 23.7 °F 11.5 °F 19.2 °F 83% 30.51 in 10.0 mi NW 13.8 mph - N/A   Clear
1:15 AM 23.9 °F 13.5 °F 19.4 °F 83% 30.52 in 10.0 mi NW 10.4 mph 18.4 mph N/A   Clear
1:35 AM 23.9 °F 14.2 °F 19.8 °F 84% 30.52 in 10.0 mi NW 9.2 mph - N/A   Clear
1:55 AM 22.8 °F 13.6 °F 19.0 °F 85% 30.53 in 10.0 mi West 8.1 mph - N/A   Clear
2:15 AM 23.7 °F 12.6 °F 19.2 °F 83% 30.53 in 10.0 mi NW 11.5 mph - N/A   Clear
2:35 AM 22.5 °F 15.1 °F 18.3 °F 84% 30.54 in 10.0 mi NW 5.8 mph - N/A   Clear
2:55 AM 19.6 °F 11.7 °F 16.7 °F 89% 30.54 in 10.0 mi WNW 5.8 mph - N/A   Clear
3:15 AM 18.7 °F 10.6 °F 16.0 °F 89% 30.54 in 10.0 mi WNW 5.8 mph - N/A   Clear
3:35 AM 19.2 °F 11.3 °F 17.1 °F 91% 30.53 in 10.0 mi NW 5.8 mph - N/A   Clear
3:55 AM 18.5 °F 10.4 °F 16.2 °F 91% 30.53 in 10.0 mi NW 5.8 mph - N/A   Clear
4:15 AM 20.5 °F 12.8 °F 17.8 °F 89% 30.52 in 10.0 mi NW 5.8 mph - N/A   Clear
4:35 AM 19.8 °F 10.8 °F 17.1 °F 89% 30.52 in 10.0 mi NW 6.9 mph - N/A   Clear
4:55 AM 21.6 °F 12.1 °F 18.1 °F 87% 30.52 in 10.0 mi WNW 8.1 mph - N/A   Clear
5:15 AM 20.5 °F 11.7 °F 17.4 °F 88% 30.52 in 10.0 mi WNW 6.9 mph - N/A   Clear
5:35 AM 19.9 °F 10.1 °F 17.2 °F 89% 30.53 in 10.0 mi WNW 8.1 mph - N/A   Clear
5:55 AM 20.7 °F 14.2 °F 17.2 °F 87% 30.54 in 10.0 mi WNW 4.6 mph - N/A   Clear
6:15 AM 17.2 °F 8.9 °F 14.9 °F 91% 30.54 in 10.0 mi WNW 5.8 mph - N/A   Clear
6:35 AM 19.4 °F 10.4 °F 16.5 °F 89% 30.54 in 10.0 mi NW 6.9 mph - N/A   Clear
6:55 AM 20.7 °F 11.9 °F 17.2 °F 87% 30.54 in 10.0 mi WNW 6.9 mph - N/A   Clear
7:15 AM 19.8 °F 11.9 °F 16.5 °F 87% 30.54 in 10.0 mi NW 5.8 mph - N/A   Clear
7:35 AM 19.4 °F 10.4 °F 16.5 °F 89% 30.54 in 10.0 mi NW 6.9 mph - N/A   Clear
7:55 AM 21.2 °F 11.7 °F 17.8 °F 87% 30.54 in 10.0 mi WNW 8.1 mph - N/A   Clear
8:15 AM 23.4 °F - 19.2 °F 84% 30.54 in 10.0 mi Calm Calm - N/A   Clear
8:35 AM 27.0 °F 20.5 °F 21.0 °F 78% 30.56 in 10.0 mi NW 5.8 mph - N/A   Clear
8:55 AM 29.8 °F 22.2 °F 21.4 °F 71% 30.56 in 10.0 mi WNW 8.1 mph - N/A   Clear
9:15 AM 32.2 °F 25.8 °F 22.5 °F 67% 30.56 in 10.0 mi WNW 6.9 mph - N/A   Clear
9:35 AM 35.8 °F 30.1 °F 23.5 °F 61% 30.56 in 10.0 mi NNW 6.9 mph - N/A   Clear
9:55 AM 40.6 °F 38.6 °F 23.4 °F 50% 30.55 in 10.0 mi WNW 3.5 mph - N/A   Clear
10:15 AM 45.5 °F 38.6 °F 18.9 °F 35% 30.55 in 10.0 mi NW 16.1 mph 21.9 mph N/A   Clear
10:35 AM 47.3 °F - 19.9 °F 34% 30.54 in 10.0 mi NW 11.5 mph 21.9 mph N/A   Clear
10:55 AM 48.6 °F - 20.8 °F 34% 30.52 in 10.0 mi NW 11.5 mph 21.9 mph N/A   Clear
11:15 AM 49.1 °F - 21.0 °F 33% 30.52 in 10.0 mi NW 13.8 mph 20.7 mph N/A   Clear
11:35 AM 50.9 °F - 21.9 °F 32% 30.51 in 10.0 mi NW 16.1 mph 21.9 mph N/A   Clear
11:55 AM 51.6 °F - 22.8 °F 32% 30.49 in 10.0 mi NW 13.8 mph 24.2 mph N/A   Clear
12:15 PM 52.7 °F - 23.7 °F 32% 30.48 in 10.0 mi NNW 12.7 mph 24.2 mph N/A   Clear
12:35 PM 53.4 °F - 23.9 °F 32% 30.47 in 10.0 mi NW 11.5 mph 25.3 mph N/A   Clear
12:55 PM 54.0 °F - 24.1 °F 31% 30.46 in 10.0 mi NW 11.5 mph 18.4 mph N/A   Clear
1:15 PM 55.0 °F - 25.0 °F 31% 30.45 in 10.0 mi NW 11.5 mph - N/A   Clear
1:35 PM 56.1 °F - 26.1 °F 31% 30.44 in 10.0 mi North 12.7 mph 16.1 mph N/A   Clear
1:55 PM 56.3 °F - 27.0 °F 32% 30.43 in 10.0 mi North 10.4 mph - N/A   Clear
2:15 PM 57.7 °F - 28.0 °F 32% 30.43 in 10.0 mi North 11.5 mph 16.1 mph N/A   Clear
2:35 PM 57.9 °F - 28.9 °F 33% 30.42 in 10.0 mi NNW 10.4 mph - N/A   Clear
2:55 PM 58.1 °F - 28.9 °F 33% 30.42 in 10.0 mi NW 12.7 mph - N/A   Clear
3:15 PM 57.7 °F - 29.7 °F 34% 30.43 in 10.0 mi North 16.1 mph 20.7 mph N/A   Clear
3:35 PM 57.0 °F - 29.1 °F 35% 30.42 in 10.0 mi NNW 16.1 mph 19.6 mph N/A   Clear
3:55 PM 55.6 °F - 27.5 °F 34% 30.42 in 10.0 mi North 11.5 mph - N/A   Clear
4:15 PM 54.1 °F - 28.2 °F 37% 30.42 in 10.0 mi North 10.4 mph - N/A   Clear
4:35 PM 52.2 °F - 28.6 °F 40% 30.43 in 10.0 mi North 11.5 mph - N/A   Clear
4:55 PM 49.5 °F - 28.8 °F 45% 30.43 in 10.0 mi North 11.5 mph - N/A   Clear
5:15 PM 46.2 °F 40.8 °F 28.2 °F 50% 30.43 in 10.0 mi North 11.5 mph 17.3 mph N/A   Clear
5:35 PM 40.3 °F 36.3 °F 27.3 °F 60% 30.44 in 10.0 mi NW 5.8 mph - N/A   Clear
5:55 PM 41.4 °F 38.4 °F 27.0 °F 57% 30.44 in 10.0 mi West 4.6 mph - N/A   Clear
6:15 PM 37.8 °F 31.3 °F 27.1 °F 66% 30.46 in 10.0 mi West 9.2 mph - N/A   Clear
6:35 PM 37.8 °F 34.2 °F 27.0 °F 65% 30.46 in 10.0 mi WNW 4.6 mph - N/A   Clear
6:55 PM 36.9 °F 33.1 °F 26.4 °F 66% 30.46 in 10.0 mi WNW 4.6 mph - N/A   Clear
7:15 PM 33.3 °F 30.2 °F 24.6 °F 71% 30.46 in 10.0 mi WNW 3.5 mph - N/A   Clear
7:35 PM 30.6 °F 25.8 °F 24.1 °F 77% 30.46 in 10.0 mi WNW 4.6 mph - N/A   Clear
7:55 PM 32.0 °F 25.6 °F 26.1 °F 79% 30.47 in 10.0 mi West 6.9 mph - N/A   Clear
8:15 PM 29.7 °F 26.1 °F 24.8 °F 82% 30.47 in 10.0 mi WSW 3.5 mph - N/A   Clear
8:35 PM 28.4 °F 24.6 °F 23.7 °F 83% 30.48 in 10.0 mi WSW 3.5 mph - N/A   Clear
8:55 PM 30.4 °F 26.9 °F 24.4 °F 79% 30.48 in 10.0 mi WSW 3.5 mph - N/A   Clear
9:15 PM 28.0 °F 21.7 °F 24.3 °F 86% 30.48 in 10.0 mi West 5.8 mph - N/A   Clear
9:35 PM 27.7 °F 16.6 °F 24.1 °F 86% 30.49 in 10.0 mi NW 13.8 mph - N/A   Clear
9:55 PM 27.5 °F 16.3 °F 23.9 °F 86% 30.49 in 10.0 mi NW 13.8 mph - N/A   Clear
10:15 PM 27.0 °F 14.7 °F 23.7 °F 88% 30.49 in 10.0 mi NW 16.1 mph - N/A   Clear
10:35 PM 28.0 °F 18.1 °F 24.4 °F 86% 30.49 in 10.0 mi NNW 11.5 mph - N/A   Clear
10:55 PM 26.8 °F 18.5 °F 23.2 °F 86% 30.49 in 10.0 mi NNW 8.1 mph - N/A   Clear
11:15 PM 24.8 °F 12.9 °F 21.9 °F 89% 30.49 in 10.0 mi NW 13.8 mph 18.4 mph N/A   Clear
11:35 PM 27.7 °F 17.6 °F 23.9 °F 86% 30.49 in 10.0 mi NW 11.5 mph - N/A   Clear
11:55 PM 26.2 °F 15.8 °F 23.5 °F 90% 30.49 in 10.0 mi NW 11.5 mph 20.7 mph N/A   Clear